Ottumwa, IA

7:48 PM CDT on October 20, 2019 (GMT -0500)
Ottumwa Industrial

Weather History for KOTM - August, 2019

Change the Weather History Date:

Monday, August 5, 2019

  Actual Average Record
Temperature  
Mean Temperature 75 °F 74 °F  
Max Temperature 87 °F 85 °F 101 °F (1934)
Min Temperature 63 °F 64 °F 50 °F (1994)
Degree Days  
Heating Degree Days 0 0  
Month to date heating degree days 0 0  
Since 1 June heating degree days 4 23  
Since 1 July heating degree days 0 2  
Cooling Degree Days 10 9  
Month to date cooling degree days 41 47  
Year to date cooling degree days 688 626  
Since 1 June cooling degree days 625 562  
Growing Degree Days 25 (Base 50)    
Moisture  
Dew Point 66 °F    
Average Humidity 74    
Maximum Humidity 93    
Minimum Humidity 55    
Precipitation  
Precipitation 0.14 in 0.14 in 3.45 in (1982)
Month to date precipitation 0.14 0.71  
Year to date precipitation 26.66 22.80  
Sea Level Pressure  
Sea Level Pressure 29.93 in    
Wind  
Wind Speed 7 mph (SW)    
Max Wind Speed 36 mph    
Max Gust Speed 49 mph    
Visibility 10 miles    
Events      
T = Trace of Precipitation, MM = Missing Value Source: NWS Daily Summary

Daily Weather History Graph

Daily Weather History Graph

Search for Another Location

Airport or City:

Astronomy

Aug. 05, 2019 Rise Set
Actual Time 6:09 AM CDT 8:21 PM CDT
Civil Twilight 5:38 AM CDT 8:52 PM CDT
Nautical Twilight 5:00 AM CDT 9:29 PM CDT
Astronomical Twilight 4:19 AM CDT 10:10 PM CDT
Moon 11:28 AM CDT (8/5) 11:31 PM CDT (8/5)
Length of Visible Light 15h 13m
Length of Day
14h 12m
Waxing Crescent, 28% of the Moon is Illuminated
Aug 5
Waxing Crescent
Aug 7
First Quarter
Aug 15
Full
Aug 23
Last Quarter
Aug 30
New

Hourly Weather History & Observations

Time (CDT) Temp. Heat Index Dew Point Humidity Pressure Visibility Wind Dir Wind Speed Gust Speed Precip Events Conditions
12:53 AM 66.9 °F - 63.0 °F 87% 30.00 in 10.0 mi SSW 3.5 mph - N/A   Clear
1:53 AM 66.9 °F - 64.0 °F 90% 29.99 in 10.0 mi South 4.6 mph - N/A   Clear
2:53 AM 66.0 °F - 64.0 °F 93% 29.99 in 10.0 mi South 4.6 mph - N/A   Clear
3:53 AM 64.9 °F - 62.1 °F 90% 29.99 in 10.0 mi SSW 3.5 mph - N/A   Clear
4:53 AM 64.0 °F - 61.0 °F 90% 29.99 in 9.0 mi SW 3.5 mph - N/A   Clear
5:53 AM 63.0 °F - 61.0 °F 93% 29.99 in 9.0 mi South 3.5 mph - N/A   Clear
6:53 AM 66.0 °F - 63.0 °F 90% 29.98 in 10.0 mi South 5.8 mph - N/A   Clear
7:53 AM 69.1 °F - 64.9 °F 87% 29.98 in 10.0 mi South 3.5 mph - N/A   Clear
8:53 AM 75.0 °F - 66.0 °F 73% 30.00 in 10.0 mi SW 6.9 mph - N/A   Clear
9:53 AM 80.1 °F 82.3 °F 66.9 °F 64% 30.00 in 10.0 mi WSW 5.8 mph - N/A   Clear
10:53 AM 82.0 °F 83.8 °F 64.9 °F 56% 30.00 in 10.0 mi SW 10.4 mph - N/A   Clear
11:53 AM 82.9 °F 85.0 °F 66.0 °F 56% 29.98 in 10.0 mi WSW 10.4 mph - N/A   Clear
12:53 PM 84.0 °F 86.5 °F 66.9 °F 56% 29.95 in 10.0 mi WSW 9.2 mph - N/A   Partly Cloudy
1:53 PM 84.9 °F 88.2 °F 68.0 °F 57% 29.94 in 10.0 mi WSW 9.2 mph - N/A   Scattered Clouds
2:53 PM 86.0 °F 89.4 °F 68.0 °F 55% 29.91 in 10.0 mi WSW 8.1 mph - N/A   Clear
3:53 PM 87.1 °F 91.3 °F 69.1 °F 55% 29.90 in 10.0 mi SW 6.9 mph - N/A   Partly Cloudy
4:53 PM 87.1 °F 92.0 °F 70.0 °F 57% 29.87 in 10.0 mi SW 9.2 mph - N/A   Partly Cloudy
5:53 PM 84.9 °F 88.8 °F 69.1 °F 59% 29.86 in 10.0 mi WSW 10.4 mph 19.6 mph N/A   Scattered Clouds
6:53 PM 82.9 °F 86.5 °F 69.1 °F 63% 29.83 in 10.0 mi SSW 8.1 mph - N/A   Clear
7:53 PM 80.1 °F 83.2 °F 70.0 °F 71% 29.83 in 10.0 mi SSW 6.9 mph - N/A   Clear
8:53 PM 79.0 °F - 69.1 °F 72% 29.82 in 10.0 mi SW 6.9 mph - N/A   Clear
9:53 PM 77.0 °F - 69.1 °F 76% 29.84 in 10.0 mi SSW 5.8 mph - N/A   Clear
10:53 PM 75.0 °F - 69.1 °F 82% 29.82 in 10.0 mi South 6.9 mph - N/A   Partly Cloudy
11:53 PM 75.9 °F - 70.0 °F 82% 29.85 in 10.0 mi WSW 4.6 mph - N/A   Mostly Cloudy